Date String (YYYY-MM-DD hh:mm:ss) UTC,Instrument flags,absolute air pressure of the measurement (hPa),sample flow rate (lpm),inlet stack bypass flow (lpm),air temperature of the measurement (°C),ambient temperature measured by the external sensor (°C),aerosol sample conditioner tube jacket temperature (°C),OPC LED temperature (°C),internal box temperature (°C),relative humidity of the measurement (%),span deviation,mass concentration of particles derived from Lorenz-Mie calculation of OPC scattering (μg/m³),mass concentration of particles derived from Lorenz-Mie calculation of OPC scattering (μg/m³),mass concentration of particles derived from Lorenz-Mie calculation of OPC scattering (μg/m³)
DateTimeUTC,F1_M11,P_M11,Q1_M11,Q2_M11,T1_M11,T2_M11,T3_M11,T4_M11,T5_M11,U1_M11,ZSPAN_M11,X0_M11,X2_M11,X1_M11
2024-05-22 07:00:00,SystemResetWarning,0829.0,5.00,000.00,025.6,024.8,000.0,033.9,027.4,010.2,0000.0,0003.80,0002.00,0001.70
2024-05-22 07:01:00,SystemResetWarning,0829.0,5.01,000.00,025.6,024.8,000.0,033.9,027.3,010.1,0000.0,0004.01,0002.01,0001.70
2024-05-22 07:02:00,SystemResetWarning,0829.0,5.00,000.00,025.6,024.7,000.0,033.9,027.3,010.2,0000.0,0004.26,0002.00,0001.70
2024-05-22 07:03:00,SystemResetWarning,0829.0,4.99,000.00,025.6,024.7,000.0,033.9,027.3,010.7,0000.0,0004.25,0001.99,0001.69
2024-05-22 07:04:00,SystemResetWarning,0829.0,4.99,000.00,025.6,024.7,000.0,033.9,027.3,010.7,0000.0,0004.28,0002.00,0001.68
2024-05-22 07:05:00,SystemResetWarning,0829.0,5.00,000.00,025.6,024.7,000.0,033.9,027.3,010.5,0000.0,0004.27,0001.99,0001.68
2024-05-22 07:06:00,SystemResetWarning,0829.0,5.00,000.00,025.6,024.7,000.0,033.9,027.3,010.4,0000.0,0004.35,0002.02,0001.69
2024-05-22 07:07:00,SystemResetWarning,0829.0,5.01,000.00,025.6,024.7,000.0,033.9,027.3,010.2,0000.0,0003.73,0002.00,0001.70
2024-05-22 07:08:00,SystemResetWarning,0829.0,5.00,000.00,025.6,024.7,000.0,033.9,027.3,010.3,0000.0,0003.29,0001.97,0001.70
2024-05-22 07:09:00,SystemResetWarning,0829.0,5.00,000.00,025.6,024.8,000.0,033.9,027.3,010.3,0000.0,0003.07,0001.94,0001.70
2024-05-22 07:10:00,SystemResetWarning,0829.1,5.00,000.00,025.6,024.8,000.0,033.9,027.3,010.4,0000.0,0003.05,0001.94,0001.71
2024-05-22 07:11:00,SystemResetWarning,0829.0,5.00,000.00,025.6,024.8,000.0,033.9,027.3,010.5,0000.0,0003.45,0001.96,0001.72
2024-05-22 07:12:00,SystemResetWarning,0829.0,5.00,000.00,025.6,024.8,000.0,033.8,027.3,010.6,0000.0,0004.68,0001.98,0001.72
2024-05-22 07:13:00,SystemResetWarning,0829.0,5.00,000.00,025.6,024.8,000.0,033.8,027.3,010.5,0000.0,0004.19,0001.97,0001.73
2024-05-22 07:14:00,SystemResetWarning,0829.0,5.00,000.00,025.6,024.8,000.0,033.8,027.3,010.8,0000.0,0004.16,0001.99,0001.76
2024-05-22 07:15:00,SystemResetWarning,0829.0,5.00,000.00,025.6,024.8,000.0,033.8,027.3,010.8,0000.0,0004.49,0002.04,0001.77
2024-05-22 07:16:00,SystemResetWarning,0829.1,5.00,000.00,025.6,024.8,000.0,033.8,027.3,010.4,0000.0,0004.74,0002.09,0001.78
2024-05-22 07:17:00,SystemResetWarning,0829.1,5.00,000.00,025.6,024.8,000.0,033.8,027.3,010.4,0000.0,0004.73,0002.10,0001.78
2024-05-22 07:18:00,SystemResetWarning,0829.1,5.00,000.00,025.6,024.8,000.0,033.8,027.3,010.5,0000.0,0004.77,0002.09,0001.76
2024-05-22 07:19:00,SystemResetWarning,0829.1,5.00,000.00,025.6,024.8,000.0,033.8,027.3,010.5,0000.0,0004.84,0002.08,0001.75
2024-05-22 07:20:00,SystemResetWarning,0829.1,5.00,000.00,025.6,024.8,000.0,033.8,027.3,010.4,0000.0,0004.76,0002.08,0001.75
2024-05-22 07:21:00,SystemResetWarning,0829.0,5.00,000.00,025.6,024.8,000.0,033.8,027.3,010.5,0000.0,0004.80,0002.08,0001.74
2024-05-22 07:22:00,SystemResetWarning,0829.0,5.00,000.00,025.6,024.8,000.0,033.8,027.3,010.3,0000.0,0004.91,0002.09,0001.74
2024-05-22 07:23:00,SystemResetWarning,0829.1,5.00,000.00,025.6,024.8,000.0,033.8,027.3,010.4,0000.0,0003.92,0002.07,0001.72
2024-05-22 07:24:00,SystemResetWarning,0829.1,4.99,000.00,025.5,024.8,000.0,033.8,027.3,010.5,0000.0,0003.48,0002.07,0001.71
2024-05-22 07:25:00,SystemResetWarning,0829.1,5.00,000.00,025.5,024.8,000.0,033.8,027.3,010.4,0000.0,0003.51,0002.06,0001.71
2024-05-22 07:26:00,SystemResetWarning,0829.1,4.99,000.00,025.5,024.8,000.0,033.8,027.3,010.2,0000.0,0003.23,0001.99,0001.69
2024-05-22 07:27:00,SystemResetWarning,0829.1,5.01,000.00,025.5,024.8,000.0,033.8,027.3,010.0,0000.0,0003.23,0001.94,0001.68
2024-05-22 07:28:00,SystemResetWarning,0829.1,5.00,000.00,025.5,024.7,000.0,033.8,027.2,010.2,0000.0,0004.34,0001.94,0001.67
2024-05-22 07:29:00,SystemResetWarning,0829.1,5.00,000.00,025.5,024.7,000.0,033.8,027.2,010.3,0000.0,0004.26,0001.92,0001.67
2024-05-22 07:30:00,SystemResetWarning,0829.1,5.00,000.00,025.5,024.7,000.0,033.8,027.2,010.5,0000.0,0004.14,0001.90,0001.66
2024-05-22 07:31:00,SystemResetWarning,0829.1,5.00,000.00,025.5,024.7,000.0,033.8,027.3,010.4,0000.0,0004.15,0001.91,0001.68
2024-05-22 07:32:00,SystemResetWarning,0829.1,5.00,000.00,025.5,024.7,000.0,033.8,027.3,010.3,0000.0,0004.14,0001.91,0001.68
2024-05-22 07:33:00,SystemResetWarning,0829.1,5.00,000.00,025.5,024.7,000.0,033.8,027.3,010.3,0000.0,0004.05,0001.91,0001.69
2024-05-22 07:34:00,SystemResetWarning,0829.1,5.00,000.00,025.5,024.7,000.0,033.8,027.2,010.3,0000.0,0004.74,0001.92,0001.71
2024-05-22 07:35:00,SystemResetWarning,0829.1,4.99,000.00,025.5,024.7,000.0,033.8,027.2,010.5,0000.0,0005.16,0001.93,0001.72
2024-05-22 07:36:00,SystemResetWarning,0829.1,5.00,000.00,025.5,024.7,000.0,033.8,027.3,010.5,0000.0,0005.09,0001.93,0001.71
2024-05-22 07:37:00,SystemResetWarning,0829.1,4.99,000.00,025.5,024.7,000.0,033.8,027.3,010.6,0000.0,0005.16,0001.96,0001.73
2024-05-22 07:38:00,SystemResetWarning,0829.1,5.01,000.00,025.5,024.7,000.0,033.8,027.3,010.6,0000.0,0004.94,0001.96,0001.73
2024-05-22 07:39:00,SystemResetWarning,0829.1,5.00,000.00,025.5,024.7,000.0,033.8,027.3,010.7,0000.0,0003.65,0001.91,0001.72
2024-05-22 07:40:00,SystemResetWarning,0829.1,5.00,000.00,025.5,024.7,000.0,033.8,027.3,010.6,0000.0,0003.64,0001.91,0001.71
2024-05-22 07:41:00,SystemResetWarning,0829.1,5.00,000.00,025.5,024.7,000.0,033.8,027.2,010.7,0000.0,0003.66,0001.90,0001.70
2024-05-22 07:42:00,SystemResetWarning,0829.1,5.00,000.00,025.5,024.7,000.0,033.8,027.2,010.7,0000.0,0003.64,0001.89,0001.70
2024-05-22 07:43:00,SystemResetWarning,0829.0,5.00,000.00,025.5,024.7,000.0,033.8,027.2,010.7,0000.0,0003.63,0001.89,0001.70
2024-05-22 07:44:00,SystemResetWarning,0829.1,5.00,000.00,025.5,024.7,000.0,033.8,027.2,010.7,0000.0,0003.55,0001.86,0001.69
2024-05-22 07:45:00,SystemResetWarning,0829.1,5.00,000.00,025.5,024.7,000.0,033.8,027.2,010.7,0000.0,0002.71,0001.84,0001.68
2024-05-22 07:46:00,SystemResetWarning,0829.1,5.00,000.00,025.5,024.7,000.0,033.8,027.2,010.8,0000.0,0002.22,0001.85,0001.68
2024-05-22 07:47:00,SystemResetWarning,0829.1,5.00,000.00,025.4,024.7,000.0,033.8,027.2,010.9,0000.0,0002.27,0001.87,0001.67
2024-05-22 07:48:00,SystemResetWarning,0829.0,5.01,000.00,025.4,024.6,000.0,033.8,027.2,011.0,0000.0,0002.20,0001.84,0001.65
2024-05-22 07:49:00,SystemResetWarning,0829.0,5.00,000.00,025.4,024.6,000.0,033.7,027.2,010.7,0000.0,0002.18,0001.83,0001.65
2024-05-22 07:50:00,SystemResetWarning,0829.0,5.00,000.00,025.4,024.6,000.0,033.7,027.2,010.6,0000.0,0002.25,0001.84,0001.65
2024-05-22 07:51:00,SystemResetWarning,0829.1,5.00,000.00,025.4,024.6,000.0,033.7,027.2,010.7,0000.0,0002.31,0001.85,0001.64
2024-05-22 07:52:00,SystemResetWarning,0829.0,5.00,000.00,025.4,024.6,000.0,033.7,027.2,010.5,0000.0,0002.31,0001.86,0001.64
2024-05-22 07:53:00,SystemResetWarning,0828.9,5.00,000.00,025.4,024.6,000.0,033.7,027.2,010.6,0000.0,0002.32,0001.85,0001.63
2024-05-22 07:54:00,SystemResetWarning,0828.9,5.00,000.00,025.4,024.6,000.0,033.7,027.2,010.8,0000.0,0002.42,0001.88,0001.63
2024-05-22 07:55:00,SystemResetWarning,0828.9,5.00,000.00,025.4,024.6,000.0,033.7,027.2,010.6,0000.0,0002.45,0001.90,0001.63
2024-05-22 07:56:00,SystemResetWarning,0829.0,5.00,000.00,025.4,024.6,000.0,033.7,027.1,010.5,0000.0,0002.56,0001.93,0001.63
2024-05-22 07:57:00,SystemResetWarning,0829.0,5.00,000.00,025.4,024.6,000.0,033.7,027.1,010.7,0000.0,0002.50,0001.91,0001.62
2024-05-22 07:58:00,SystemResetWarning,0829.0,5.00,000.00,025.4,024.6,000.0,033.7,027.1,010.9,0000.0,0002.42,0001.87,0001.61
2024-05-22 07:59:00,SystemResetWarning,0829.0,5.00,000.00,025.4,024.6,000.0,033.7,027.1,011.0,0000.0,0002.53,0001.88,0001.61
